UAL760 KDEN-EDDM

Flight info

Callsign UAL760
Flight time N/A
Altitude 37000
Route CHUWY1 CHUWY DCT KP81A DCT KP90C DCT KP09E DCT KP15G DCT 4930N09000W DCT VIRSO DCT HELMO DCT FASSA/N0499F390 DCT LOPVI DCT PEPKI/M085F390 DCT PIDSO DCT 62N050W 6230N04000W 62N030W 6030N02000W DCT ERAKA/N0484F390 DCT ETSOM DCT GODOS DCT SPY DCT MISGO DCT DOJOH DCT DODEN DCT TABUM DCT BOMBI T104 HAREM/N0490F350 T104 ELMOX/N0490F270 T104 ROKIL ROKIL1B
Aircraft B789/H-SDE1E2E3FGHIJ2J3J4J5M1RWXY/LB1D1

Departure

Time 2026-05-04 01:54
Airport Denver International Airport (KDEN)

Arrival

Time N/A
Airport Munich Airport (EDDM)
Time Latitude Longitude Altitude Speed Heading
2026-05-04 01:34 39.85327 -104.67561 5392 ft 0 kts 28°
2026-05-04 01:42 39.85316 -104.67569 5382 ft 1 kts 35°
2026-05-04 01:43 39.85316 -104.67568 5382 ft 0 kts 38°
2026-05-04 01:43 39.85311 -104.67573 5382 ft 3 kts 40°
2026-05-04 01:44 39.85289 -104.67592 5382 ft 3 kts 15°
2026-05-04 01:44 39.85269 -104.67598 5382 ft 3 kts 356°
2026-05-04 01:44 39.85253 -104.67596 5382 ft 0 kts 341°
2026-05-04 01:48 39.85257 -104.67604 5382 ft 2 kts 310°
2026-05-04 01:48 39.85257 -104.67612 5382 ft 0 kts 289°
2026-05-04 01:49 39.85267 -104.67664 5384 ft 12 kts 278°
2026-05-04 01:50 39.85280 -104.67826 5392 ft 22 kts 272°
2026-05-04 01:50 39.85275 -104.68024 5385 ft 22 kts 271°
2026-05-04 01:50 39.85247 -104.68219 5386 ft 21 kts 244°
2026-05-04 01:50 39.85198 -104.68371 5384 ft 11 kts 254°
2026-05-04 01:51 39.85211 -104.68514 5373 ft 20 kts 273°
2026-05-04 01:51 39.85198 -104.68695 5367 ft 21 kts 266°
2026-05-04 01:51 39.85194 -104.68893 5361 ft 23 kts 269°
2026-05-04 01:51 39.85196 -104.69095 5355 ft 22 kts 271°
2026-05-04 01:52 39.85197 -104.69201 5354 ft 1 kts 270°
2026-05-04 01:52 39.85197 -104.69226 5353 ft 4 kts 270°
2026-05-04 01:52 39.85198 -104.69318 5347 ft 16 kts 271°
2026-05-04 01:52 39.85203 -104.69516 5343 ft 27 kts 273°
2026-05-04 01:53 39.85261 -104.69643 5341 ft 14 kts 341°
2026-05-04 01:53 39.85372 -104.69660 5342 ft 28 kts 358°
2026-05-04 01:53 39.85700 -104.69655 5347 ft 62 kts 360°
2026-05-04 01:53 39.86351 -104.69650 5339 ft 127 kts
2026-05-04 01:54 39.87434 -104.69641 5351 ft 185 kts
2026-05-04 01:54 39.88828 -104.69600 5775 ft 212 kts 356°
2026-05-04 01:54 39.90313 -104.69758 6663 ft 215 kts 353°
2026-05-04 01:54 39.91799 -104.69699 7532 ft 212 kts
2026-05-04 01:55 39.93289 -104.69553 8011 ft 218 kts
2026-05-04 01:55 39.94877 -104.69415 8341 ft 243 kts 360°
2026-05-04 01:55 39.96002 -104.69384 8952 ft 238 kts 356°
2026-05-04 01:55 39.97546 -104.69470 10373 ft 210 kts 351°
2026-05-04 01:56 39.99003 -104.69755 11044 ft 220 kts 344°
2026-05-04 01:56 40.00556 -104.70389 11310 ft 244 kts 334°
2026-05-04 01:56 40.02001 -104.71433 12399 ft 226 kts 321°
2026-05-04 01:56 40.03092 -104.72769 13573 ft 212 kts 312°
2026-05-04 01:57 40.04363 -104.73955 13608 ft 247 kts 345°
2026-05-04 01:57 40.06164 -104.73978 13785 ft 280 kts 12°
2026-05-04 01:57 40.07877 -104.72546 14065 ft 312 kts 43°
2026-05-04 01:57 40.09508 -104.70513 14294 ft 337 kts 38°
2026-05-04 01:58 40.11341 -104.68422 14591 ft 359 kts 39°
2026-05-04 01:58 40.13203 -104.66182 15314 ft 368 kts 40°
2026-05-04 01:58 40.15073 -104.63855 16088 ft 374 kts 40°
2026-05-04 01:58 40.16981 -104.61515 16895 ft 379 kts 39°
2026-05-04 01:59 40.18934 -104.59159 17679 ft 385 kts 39°
2026-05-04 01:59 40.20913 -104.56758 18434 ft 391 kts 39°
2026-05-04 01:59 40.22915 -104.54308 19099 ft 397 kts 39°
2026-05-04 01:59 40.24944 -104.51825 19748 ft 402 kts 39°
2026-05-04 02:00 40.27004 -104.49310 20400 ft 408 kts 39°
2026-05-04 02:00 40.29098 -104.46752 21038 ft 413 kts 39°
2026-05-04 02:00 40.31214 -104.44160 21669 ft 419 kts 39°
2026-05-04 02:00 40.33352 -104.41539 22280 ft 424 kts 39°
2026-05-04 02:01 40.35518 -104.38883 22900 ft 429 kts 39°
2026-05-04 02:01 40.37717 -104.36184 23489 ft 433 kts 39°
2026-05-04 02:01 40.39928 -104.33468 24000 ft 437 kts 39°
2026-05-04 02:01 40.42125 -104.30764 24516 ft 441 kts 39°
2026-05-04 02:02 40.44368 -104.28003 25029 ft 444 kts 39°
2026-05-04 02:02 40.46629 -104.25218 25545 ft 447 kts 39°
2026-05-04 02:02 40.48906 -104.22409 26042 ft 450 kts 39°
2026-05-04 02:02 40.50013 -104.21043 26293 ft 451 kts 39°
2026-05-04 02:03 40.52134 -104.18423 26748 ft 454 kts 38°
2026-05-04 02:03 40.54445 -104.15567 27256 ft 456 kts 38°
2026-05-04 02:03 40.56766 -104.12694 27754 ft 459 kts 38°
2026-05-04 02:03 40.59102 -104.09800 28227 ft 462 kts 38°
2026-05-04 02:04 40.61448 -104.06891 28709 ft 465 kts 38°
2026-05-04 02:04 40.63811 -104.03958 29181 ft 468 kts 38°
2026-05-04 02:04 40.66155 -104.01046 29631 ft 471 kts 38°
2026-05-04 02:04 40.68542 -103.98076 30060 ft 473 kts 38°
2026-05-04 02:05 40.70944 -103.95085 30437 ft 476 kts 38°
2026-05-04 02:05 40.73357 -103.92077 30814 ft 479 kts 38°
2026-05-04 02:05 40.75787 -103.89045 31192 ft 481 kts 38°
2026-05-04 02:05 40.78224 -103.86001 31558 ft 484 kts 38°
2026-05-04 02:06 40.80673 -103.82939 31919 ft 486 kts 38°
2026-05-04 02:06 40.83133 -103.79860 32280 ft 488 kts 38°
2026-05-04 02:06 40.85602 -103.76766 32635 ft 491 kts 38°
2026-05-04 02:06 40.88083 -103.73653 32989 ft 493 kts 38°
2026-05-04 02:07 40.90574 -103.70525 33333 ft 495 kts 38°
2026-05-04 02:07 40.93074 -103.67382 33669 ft 497 kts 38°
2026-05-04 02:07 40.95587 -103.64219 33983 ft 499 kts 38°
2026-05-04 02:07 40.98106 -103.61045 34254 ft 501 kts 38°
2026-05-04 02:08 41.00637 -103.57853 34524 ft 504 kts 38°
2026-05-04 02:08 41.03138 -103.54692 34890 ft 503 kts 38°
2026-05-04 02:08 41.05670 -103.51491 35276 ft 502 kts 38°
2026-05-04 02:08 41.08195 -103.48296 35638 ft 501 kts 38°
2026-05-04 02:09 41.10723 -103.45095 35983 ft 501 kts 38°
2026-05-04 02:09 41.13251 -103.41887 36333 ft 501 kts 38°
2026-05-04 02:09 41.15769 -103.38690 36649 ft 501 kts 38°
2026-05-04 02:09 41.18290 -103.35484 36886 ft 503 kts 38°
2026-05-04 02:10 41.23280 -103.29006 36862 ft 500 kts 43°
2026-05-04 02:10 41.27935 -103.22157 36878 ft 502 kts 42°
2026-05-04 02:11 41.32606 -103.15284 36857 ft 501 kts 42°
2026-05-04 02:11 41.37210 -103.08486 36848 ft 500 kts 42°
2026-05-04 02:12 41.41867 -103.01601 36841 ft 499 kts 42°
2026-05-04 02:12 41.46513 -102.94712 36838 ft 499 kts 42°
2026-05-04 02:13 41.51149 -102.87832 36846 ft 498 kts 41°
2026-05-04 02:13 41.55934 -102.81240 36853 ft 498 kts 40°
2026-05-04 02:14 41.60734 -102.74570 36856 ft 497 kts 40°
2026-05-04 02:14 41.65543 -102.67931 36868 ft 497 kts 40°
2026-05-04 02:15 41.70335 -102.61261 36878 ft 497 kts 40°
2026-05-04 02:15 41.75133 -102.54592 36884 ft 497 kts 40°
2026-05-04 02:16 41.79922 -102.47905 36891 ft 497 kts 40°
2026-05-04 02:16 41.84708 -102.41215 36891 ft 496 kts 40°
2026-05-04 02:17 41.89479 -102.34527 36899 ft 496 kts 41°
2026-05-04 02:17 41.94243 -102.27835 36906 ft 495 kts 41°
2026-05-04 02:18 41.98963 -102.21189 36912 ft 494 kts 41°
2026-05-04 02:18 42.03706 -102.14495 36915 ft 493 kts 41°
2026-05-04 02:19 42.08441 -102.07797 36919 ft 492 kts 41°
2026-05-04 02:19 42.13158 -102.01110 36921 ft 492 kts 41°
2026-05-04 02:20 42.17831 -101.94467 36914 ft 491 kts 41°
2026-05-04 02:20 42.22523 -101.87786 36913 ft 490 kts 41°
2026-05-04 02:21 42.27209 -101.81095 36895 ft 490 kts 41°
2026-05-04 02:21 42.31885 -101.74404 36900 ft 489 kts 41°
2026-05-04 02:22 42.36544 -101.67721 36899 ft 488 kts 41°
2026-05-04 02:22 42.41197 -101.61031 36892 ft 487 kts 42°
2026-05-04 02:23 42.45806 -101.54391 36886 ft 486 kts 42°
2026-05-04 02:23 42.50442 -101.47696 36876 ft 486 kts 42°
2026-05-04 02:24 42.55063 -101.41004 36876 ft 486 kts 42°
2026-05-04 02:24 42.59684 -101.34301 36868 ft 486 kts 42°
2026-05-04 02:25 42.64293 -101.27597 36862 ft 485 kts 42°
2026-05-04 02:25 42.68904 -101.20875 36860 ft 485 kts 42°
2026-05-04 02:26 42.73499 -101.14161 36852 ft 484 kts 42°
2026-05-04 02:26 42.78079 -101.07452 36851 ft 483 kts 43°
2026-05-04 02:27 42.82653 -101.00738 36849 ft 482 kts 43°
2026-05-04 02:27 42.87220 -100.94018 36847 ft 483 kts 43°
2026-05-04 02:28 42.91744 -100.87344 36846 ft 482 kts 43°
2026-05-04 02:28 42.96299 -100.80610 36843 ft 481 kts 43°
2026-05-04 02:29 43.00842 -100.73879 36846 ft 482 kts 43°
2026-05-04 02:29 43.05377 -100.67143 36841 ft 482 kts 43°
2026-05-04 02:30 43.09913 -100.60390 36840 ft 482 kts 43°
2026-05-04 02:30 43.14419 -100.53665 36835 ft 482 kts 43°
2026-05-04 02:31 43.18945 -100.46894 36837 ft 482 kts 43°
2026-05-04 02:31 43.23469 -100.40112 36839 ft 482 kts 43°
2026-05-04 02:32 43.27993 -100.33311 36836 ft 482 kts 43°
2026-05-04 02:32 43.32514 -100.26501 36835 ft 482 kts 43°
2026-05-04 02:33 43.36996 -100.19733 36833 ft 482 kts 43°
2026-05-04 02:33 43.41506 -100.12905 36826 ft 482 kts 43°
2026-05-04 02:34 43.46010 -100.06072 36836 ft 482 kts 43°
2026-05-04 02:34 43.50551 -99.99253 36835 ft 479 kts 38°
2026-05-04 02:35 43.55330 -99.92824 36824 ft 482 kts 40°
2026-05-04 02:35 43.60103 -99.86360 36815 ft 480 kts 40°
2026-05-04 02:36 43.64846 -99.79946 36815 ft 481 kts 40°
2026-05-04 02:36 43.69613 -99.73465 36812 ft 481 kts 40°
2026-05-04 02:37 43.74387 -99.66972 36814 ft 481 kts 40°
2026-05-04 02:37 43.79154 -99.60466 36811 ft 482 kts 40°
2026-05-04 02:38 43.83919 -99.53950 36808 ft 481 kts 40°
2026-05-04 02:38 43.88677 -99.47427 36805 ft 482 kts 40°
2026-05-04 02:39 43.93442 -99.40879 36809 ft 482 kts 40°
2026-05-04 02:39 43.98201 -99.34325 36803 ft 482 kts 40°
2026-05-04 02:40 44.02959 -99.27755 36803 ft 482 kts 40°
2026-05-04 02:40 44.07678 -99.21224 36803 ft 481 kts 40°
2026-05-04 02:41 44.12411 -99.14659 36798 ft 480 kts 40°
2026-05-04 02:41 44.17139 -99.08083 36800 ft 480 kts 40°
2026-05-04 02:42 44.21861 -99.01501 36801 ft 480 kts 40°
2026-05-04 02:42 44.26571 -98.94920 36796 ft 479 kts 40°
2026-05-04 02:43 44.30476 -98.89451 36795 ft 478 kts 40°
2026-05-04 02:43 44.35952 -98.81764 36796 ft 477 kts 40°
2026-05-04 02:44 44.40623 -98.75190 36779 ft 476 kts 40°
2026-05-04 02:44 44.44495 -98.69728 36777 ft 474 kts 40°
2026-05-04 02:45 44.49886 -98.62107 36780 ft 474 kts 40°
2026-05-04 02:45 44.53772 -98.56599 36774 ft 474 kts 40°
2026-05-04 02:46 44.58373 -98.50063 36774 ft 473 kts 40°
2026-05-04 02:46 44.62997 -98.43479 36770 ft 473 kts 40°
2026-05-04 02:47 44.67615 -98.36887 36775 ft 472 kts 40°
2026-05-04 02:47 44.72219 -98.30300 36768 ft 472 kts 40°
2026-05-04 02:48 44.76821 -98.23700 36769 ft 472 kts 40°
2026-05-04 02:48 44.81420 -98.17088 36767 ft 473 kts 40°
2026-05-04 02:49 44.85989 -98.10504 36762 ft 473 kts 40°
2026-05-04 02:49 44.90584 -98.03866 36767 ft 473 kts 40°
2026-05-04 02:50 44.95180 -97.97209 36769 ft 473 kts 40°
2026-05-04 02:50 44.99773 -97.90543 36768 ft 473 kts 40°
2026-05-04 02:51 45.04361 -97.83865 36767 ft 474 kts 40°
2026-05-04 02:51 45.08966 -97.77148 36762 ft 475 kts 40°
2026-05-04 02:52 45.13568 -97.70417 36765 ft 476 kts 40°
2026-05-04 02:52 45.18143 -97.63710 36755 ft 477 kts 40°
2026-05-04 02:53 45.22753 -97.56935 36753 ft 478 kts 40°
2026-05-04 02:53 45.27371 -97.50130 36745 ft 478 kts 40°
2026-05-04 02:54 45.31986 -97.43314 36733 ft 479 kts 40°
2026-05-04 02:54 45.36608 -97.36469 36729 ft 480 kts 40°
2026-05-04 02:55 45.43539 -97.26174 36719 ft 481 kts 40°
2026-05-04 02:56 45.48163 -97.19282 36717 ft 481 kts 40°
2026-05-04 02:56 45.52794 -97.12365 36707 ft 482 kts 40°
2026-05-04 02:57 45.57423 -97.05430 36696 ft 483 kts 40°
2026-05-04 02:57 45.62023 -96.98523 36693 ft 483 kts 40°
2026-05-04 02:58 45.66657 -96.91548 36693 ft 484 kts 40°
2026-05-04 02:58 45.71290 -96.84554 36684 ft 484 kts 40°
2026-05-04 02:59 45.75917 -96.77553 36686 ft 484 kts 40°
2026-05-04 02:59 45.80516 -96.70575 36692 ft 484 kts 40°
2026-05-04 03:00 45.85135 -96.63549 36691 ft 484 kts 40°
2026-05-04 03:00 45.89759 -96.56498 36698 ft 485 kts 40°
2026-05-04 03:01 45.94386 -96.49424 36686 ft 485 kts 40°
2026-05-04 03:01 45.98980 -96.42380 36683 ft 485 kts 40°
2026-05-04 03:02 46.03592 -96.35292 36661 ft 486 kts 40°
2026-05-04 03:02 46.08218 -96.28163 36652 ft 487 kts 40°
2026-05-04 03:03 46.12837 -96.21026 36645 ft 487 kts 40°
2026-05-04 03:03 46.17461 -96.13864 36641 ft 487 kts 40°
2026-05-04 03:04 46.22077 -96.06693 36639 ft 488 kts 40°
2026-05-04 03:04 46.26699 -95.99495 36633 ft 489 kts 40°
2026-05-04 03:05 46.31288 -95.92329 36651 ft 489 kts 40°
2026-05-04 03:05 46.35904 -95.85101 36643 ft 489 kts 40°
2026-05-04 03:06 46.40517 -95.77859 36652 ft 489 kts 40°
2026-05-04 03:06 46.45134 -95.70592 36661 ft 490 kts 40°
2026-05-04 03:07 46.49758 -95.63292 36655 ft 490 kts 41°
2026-05-04 03:07 46.54380 -95.55978 36647 ft 491 kts 41°
2026-05-04 03:08 46.58964 -95.48702 36642 ft 492 kts 41°
2026-05-04 03:08 46.63578 -95.41360 36639 ft 492 kts 41°
2026-05-04 03:09 46.68140 -95.34082 36640 ft 492 kts 41°
2026-05-04 03:09 46.72758 -95.26692 36616 ft 492 kts 41°
2026-05-04 03:10 46.77350 -95.19327 36601 ft 493 kts 41°
2026-05-04 03:10 46.81963 -95.11905 36592 ft 494 kts 41°
2026-05-04 03:11 46.86573 -95.04468 36590 ft 494 kts 41°
2026-05-04 03:11 46.91182 -94.97012 36588 ft 494 kts 41°
2026-05-04 03:12 46.95794 -94.89531 36595 ft 494 kts 41°
2026-05-04 03:12 47.00375 -94.82078 36596 ft 495 kts 41°
2026-05-04 03:13 47.04975 -94.74575 36598 ft 495 kts 41°
2026-05-04 03:13 47.09577 -94.67048 36587 ft 495 kts 42°
2026-05-04 03:14 47.14170 -94.59513 36589 ft 495 kts 42°
2026-05-04 03:14 47.18762 -94.51961 36584 ft 495 kts 42°
2026-05-04 03:15 47.23313 -94.44453 36582 ft 495 kts 42°
2026-05-04 03:15 47.27892 -94.36878 36574 ft 495 kts 42°
2026-05-04 03:16 47.32474 -94.29278 36575 ft 495 kts 42°
2026-05-04 03:16 47.37050 -94.21665 36568 ft 495 kts 42°
2026-05-04 03:17 47.41619 -94.14043 36565 ft 496 kts 42°
2026-05-04 03:17 47.46186 -94.06402 36558 ft 497 kts 42°
2026-05-04 03:18 47.50695 -93.98714 36570 ft 500 kts 46°
2026-05-04 03:18 47.55021 -93.90652 36546 ft 500 kts 45°
2026-05-04 03:19 47.59351 -93.82566 36533 ft 501 kts 46°
2026-05-04 03:19 47.63674 -93.74456 36530 ft 501 kts 45°
2026-05-04 03:20 47.68001 -93.66333 36529 ft 502 kts 46°
2026-05-04 03:20 47.72297 -93.58225 36525 ft 502 kts 46°
2026-05-04 03:21 47.76621 -93.50055 36509 ft 503 kts 46°
2026-05-04 03:21 47.80935 -93.41870 36517 ft 502 kts 46°
2026-05-04 03:22 47.85252 -93.33661 36526 ft 504 kts 46°
2026-05-04 03:22 47.89569 -93.25422 36526 ft 505 kts 46°
2026-05-04 03:23 47.93887 -93.17159 36526 ft 505 kts 46°
2026-05-04 03:23 47.98172 -93.08933 36525 ft 505 kts 46°
2026-05-04 03:24 48.02484 -93.00630 36516 ft 506 kts 46°
2026-05-04 03:24 48.06097 -92.93653 36511 ft 507 kts 46°
2026-05-04 03:25 48.11108 -92.83948 36518 ft 507 kts 46°
2026-05-04 03:25 48.15422 -92.75564 36517 ft 507 kts 46°
2026-05-04 03:26 48.19722 -92.67182 36528 ft 507 kts 46°
2026-05-04 03:26 48.24020 -92.58777 36530 ft 507 kts 46°
2026-05-04 03:27 48.28287 -92.50408 36542 ft 508 kts 47°
2026-05-04 03:27 48.32584 -92.41952 36540 ft 509 kts 47°
2026-05-04 03:28 48.36883 -92.33467 36534 ft 510 kts 47°
2026-05-04 03:28 48.40447 -92.26413 36537 ft 510 kts 47°
2026-05-04 03:29 48.45442 -92.16493 36535 ft 510 kts 47°
2026-05-04 03:29 48.49729 -92.07950 36531 ft 511 kts 47°
2026-05-04 03:30 48.54014 -91.99389 36535 ft 511 kts 47°
2026-05-04 03:30 48.57563 -91.92270 36531 ft 512 kts 47°
2026-05-04 03:31 48.62575 -91.82193 36539 ft 512 kts 48°
2026-05-04 03:31 48.66853 -91.73560 36528 ft 512 kts 48°
2026-05-04 03:32 48.70407 -91.66366 36532 ft 512 kts 48°
2026-05-04 03:32 48.75361 -91.56306 36523 ft 512 kts 48°
2026-05-04 03:33 48.79620 -91.47630 36532 ft 513 kts 48°
2026-05-04 03:33 48.83160 -91.40396 36532 ft 513 kts 48°
2026-05-04 03:34 48.88128 -91.30210 36534 ft 513 kts 48°
2026-05-04 03:34 48.92372 -91.21477 36530 ft 513 kts 49°
2026-05-04 03:35 48.95896 -91.14206 36531 ft 513 kts 49°
2026-05-04 03:35 49.00126 -91.05449 36527 ft 513 kts 49°
2026-05-04 03:36 49.04343 -90.96694 36532 ft 512 kts 49°
2026-05-04 03:36 49.08553 -90.87924 36530 ft 512 kts 49°
2026-05-04 03:37 49.12732 -90.79190 36533 ft 512 kts 49°
2026-05-04 03:37 49.16934 -90.70378 36535 ft 513 kts 49°
2026-05-04 03:38 49.21131 -90.61548 36537 ft 513 kts 49°
2026-05-04 03:38 49.25315 -90.52714 36533 ft 513 kts 49°
2026-05-04 03:39 49.29499 -90.43853 36539 ft 513 kts 49°
2026-05-04 03:39 49.33674 -90.34982 36520 ft 513 kts 49°
2026-05-04 03:40 49.37844 -90.26091 36528 ft 513 kts 50°
2026-05-04 03:40 49.41984 -90.17235 36542 ft 513 kts 50°
2026-05-04 03:41 49.46143 -90.08309 36531 ft 514 kts 50°
2026-05-04 03:41 49.50319 -89.99409 36526 ft 510 kts 44°
2026-05-04 03:42 49.54878 -89.91002 36528 ft 511 kts 45°
2026-05-04 03:42 49.59401 -89.82609 36530 ft 512 kts 45°
2026-05-04 03:43 49.63952 -89.74160 36527 ft 511 kts 46°
2026-05-04 03:43 49.68479 -89.65711 36528 ft 511 kts 46°
2026-05-04 03:44 49.73012 -89.57236 36527 ft 511 kts 46°
2026-05-04 03:44 49.77529 -89.48754 36526 ft 511 kts 46°
2026-05-04 03:45 49.82044 -89.40255 36532 ft 511 kts 46°
2026-05-04 03:45 49.86557 -89.31729 36528 ft 511 kts 46°
2026-05-04 03:46 49.91059 -89.23196 36534 ft 510 kts 46°
2026-05-04 03:46 49.95552 -89.14655 36537 ft 510 kts 46°
2026-05-04 03:47 50.00036 -89.06100 36532 ft 511 kts 46°
2026-05-04 03:47 50.04514 -88.97529 36534 ft 510 kts 46°
2026-05-04 03:48 50.08915 -88.89080 36522 ft 510 kts 47°
2026-05-04 03:48 50.13359 -88.80518 36522 ft 510 kts 47°
2026-05-04 03:49 50.17805 -88.71925 36526 ft 510 kts 47°
2026-05-04 03:49 50.22274 -88.63261 36533 ft 510 kts 47°
2026-05-04 03:50 50.26722 -88.54606 36542 ft 510 kts 47°
2026-05-04 03:50 50.31145 -88.45973 36554 ft 510 kts 47°
2026-05-04 03:51 50.35566 -88.37315 36565 ft 510 kts 47°
2026-05-04 03:51 50.39996 -88.28610 36572 ft 510 kts 47°
2026-05-04 03:52 50.44431 -88.19867 36559 ft 510 kts 47°
2026-05-04 03:52 50.47343 -88.14109 36567 ft 510 kts 47°
2026-05-04 03:53 50.51747 -88.05379 36572 ft 509 kts 48°
2026-05-04 03:53 50.56141 -87.96639 36582 ft 509 kts 48°
2026-05-04 03:54 50.60529 -87.87882 36582 ft 508 kts 48°
2026-05-04 03:54 50.64873 -87.79181 36585 ft 508 kts 48°
2026-05-04 03:55 50.69237 -87.70414 36582 ft 507 kts 48°
2026-05-04 03:55 50.73589 -87.61640 36583 ft 507 kts 49°
2026-05-04 03:56 50.77934 -87.52850 36581 ft 506 kts 49°
2026-05-04 03:56 50.82256 -87.44079 36585 ft 506 kts 49°
2026-05-04 03:57 50.86575 -87.35281 36580 ft 506 kts 49°
2026-05-04 03:57 50.90852 -87.26542 36578 ft 505 kts 49°
2026-05-04 03:58 50.97297 -87.13318 36571 ft 505 kts 49°
2026-05-04 03:58 51.01589 -87.04471 36570 ft 504 kts 50°
2026-05-04 03:59 51.05864 -86.95632 36573 ft 504 kts 50°
2026-05-04 03:59 51.10131 -86.86779 36575 ft 504 kts 50°
2026-05-04 04:00 51.14358 -86.77978 36572 ft 504 kts 50°
2026-05-04 04:00 51.18617 -86.69080 36574 ft 504 kts 50°
2026-05-04 04:01 51.22861 -86.60184 36573 ft 504 kts 50°
2026-05-04 04:01 51.27080 -86.51309 36569 ft 504 kts 50°
2026-05-04 04:02 51.31319 -86.42363 36586 ft 504 kts 50°
2026-05-04 04:02 51.35547 -86.33406 36578 ft 504 kts 50°
2026-05-04 04:03 51.39769 -86.24433 36575 ft 504 kts 51°
2026-05-04 04:03 51.43979 -86.15455 36579 ft 504 kts 51°
2026-05-04 04:04 51.48162 -86.06500 36563 ft 504 kts 51°
2026-05-04 04:04 51.52365 -85.97477 36556 ft 505 kts 51°
2026-05-04 04:05 51.55856 -85.89953 36557 ft 505 kts 51°
2026-05-04 04:05 51.60753 -85.79366 36556 ft 505 kts 51°
2026-05-04 04:06 51.64937 -85.70286 36564 ft 505 kts 51°
2026-05-04 04:06 51.69111 -85.61193 36571 ft 504 kts 51°
2026-05-04 04:07 51.73277 -85.52088 36578 ft 504 kts 52°
2026-05-04 04:07 51.77438 -85.42960 36584 ft 504 kts 52°
2026-05-04 04:08 51.81574 -85.33857 36587 ft 505 kts 52°
2026-05-04 04:08 51.85726 -85.24685 36594 ft 505 kts 52°
2026-05-04 04:09 51.89840 -85.15564 36588 ft 504 kts 52°
2026-05-04 04:09 51.93973 -85.06369 36590 ft 504 kts 52°
2026-05-04 04:10 51.98094 -84.97168 36595 ft 504 kts 52°
2026-05-04 04:10 52.02212 -84.87940 36590 ft 504 kts 52°
2026-05-04 04:11 52.06300 -84.78748 36592 ft 504 kts 52°
2026-05-04 04:11 52.09738 -84.70991 36589 ft 504 kts 53°
2026-05-04 04:12 52.13805 -84.61784 36589 ft 504 kts 53°
2026-05-04 04:12 52.18583 -84.50924 36588 ft 504 kts 53°
2026-05-04 04:13 52.22660 -84.41623 36587 ft 504 kts 53°
2026-05-04 04:13 52.26705 -84.32361 36587 ft 503 kts 53°
2026-05-04 04:14 52.30759 -84.23043 36588 ft 502 kts 53°
2026-05-04 04:14 52.34801 -84.13722 36584 ft 502 kts 53°
2026-05-04 04:15 52.38836 -84.04381 36586 ft 503 kts 53°
2026-05-04 04:15 52.42839 -83.95080 36586 ft 502 kts 53°
2026-05-04 04:16 52.46862 -83.85698 36585 ft 502 kts 54°
2026-05-04 04:16 52.50874 -83.76309 36585 ft 502 kts 54°
2026-05-04 04:17 52.54857 -83.66950 36586 ft 502 kts 54°
2026-05-04 04:17 52.58878 -83.57470 36588 ft 502 kts 54°
2026-05-04 04:18 52.62841 -83.48091 36588 ft 502 kts 54°
2026-05-04 04:18 52.66820 -83.38641 36585 ft 502 kts 54°
2026-05-04 04:19 52.70793 -83.29167 36588 ft 502 kts 54°
2026-05-04 04:19 52.74762 -83.19671 36588 ft 502 kts 54°
2026-05-04 04:20 52.78076 -83.11713 36588 ft 502 kts 54°
2026-05-04 04:20 52.82669 -83.00643 36591 ft 502 kts 55°
2026-05-04 04:21 52.86611 -82.91102 36587 ft 502 kts 55°
2026-05-04 04:21 52.90549 -82.81537 36588 ft 502 kts 55°
2026-05-04 04:22 52.94473 -82.71968 36584 ft 502 kts 55°
2026-05-04 04:22 52.98361 -82.62451 36579 ft 501 kts 55°
2026-05-04 04:23 53.02268 -82.52852 36579 ft 501 kts 55°
2026-05-04 04:23 53.05534 -82.44801 36577 ft 501 kts 55°
2026-05-04 04:24 53.09421 -82.35184 36582 ft 501 kts 55°
2026-05-04 04:24 53.13283 -82.25593 36582 ft 501 kts 56°
2026-05-04 04:25 53.17157 -82.15935 36586 ft 501 kts 56°
2026-05-04 04:25 53.21025 -82.06256 36592 ft 501 kts 56°
2026-05-04 04:26 53.24889 -81.96549 36594 ft 501 kts 56°
2026-05-04 04:26 53.28723 -81.86881 36594 ft 501 kts 56°
2026-05-04 04:27 53.32561 -81.77165 36597 ft 501 kts 56°
2026-05-04 04:27 53.36398 -81.67416 36597 ft 501 kts 56°
2026-05-04 04:28 53.40225 -81.57652 36600 ft 501 kts 56°
2026-05-04 04:28 53.44044 -81.47871 36600 ft 501 kts 56°
2026-05-04 04:29 53.47877 -81.38018 36611 ft 505 kts 56°
2026-05-04 04:29 53.51710 -81.28122 36611 ft 505 kts 56°
2026-05-04 04:30 53.55528 -81.18228 36609 ft 505 kts 57°
2026-05-04 04:30 53.59344 -81.08300 36610 ft 505 kts 57°
2026-05-04 04:31 53.63150 -80.98359 36616 ft 505 kts 57°
2026-05-04 04:31 53.66921 -80.88470 36617 ft 505 kts 57°
2026-05-04 04:32 53.70714 -80.78484 36621 ft 505 kts 57°
2026-05-04 04:32 53.74491 -80.68501 36622 ft 505 kts 57°
2026-05-04 04:33 53.78265 -80.58486 36625 ft 505 kts 57°
2026-05-04 04:33 53.82015 -80.48493 36628 ft 505 kts 57°
2026-05-04 04:34 53.85770 -80.38449 36628 ft 505 kts 57°
2026-05-04 04:34 53.89517 -80.28382 36629 ft 505 kts 57°
2026-05-04 04:35 53.93261 -80.18286 36629 ft 505 kts 57°
2026-05-04 04:35 53.96994 -80.08179 36634 ft 505 kts 58°
2026-05-04 04:36 54.00805 -79.98174 36645 ft 504 kts 52°
2026-05-04 04:36 54.05016 -79.88711 36636 ft 504 kts 52°
2026-05-04 04:37 54.13448 -79.69592 36641 ft 504 kts 53°
2026-05-04 04:38 54.17656 -79.60000 36641 ft 504 kts 53°
2026-05-04 04:38 54.21854 -79.50390 36643 ft 504 kts 53°
2026-05-04 04:39 54.26036 -79.40783 36650 ft 504 kts 53°
2026-05-04 04:39 54.30210 -79.31157 36650 ft 503 kts 53°
2026-05-04 04:40 54.34372 -79.21521 36652 ft 503 kts 53°
2026-05-04 04:40 54.38527 -79.11863 36651 ft 503 kts 53°
2026-05-04 04:41 54.42671 -79.02194 36654 ft 503 kts 53°
2026-05-04 04:41 54.46778 -78.92574 36661 ft 502 kts 54°
2026-05-04 04:42 54.50903 -78.82874 36660 ft 502 kts 54°
2026-05-04 04:42 54.55027 -78.73139 36666 ft 502 kts 54°
2026-05-04 04:43 54.59142 -78.63386 36672 ft 502 kts 54°
2026-05-04 04:43 54.63248 -78.53617 36680 ft 503 kts 54°
2026-05-04 04:44 54.67346 -78.43829 36684 ft 502 kts 54°
2026-05-04 04:44 54.71429 -78.34039 36687 ft 502 kts 54°
2026-05-04 04:45 54.75480 -78.24284 36687 ft 502 kts 54°
2026-05-04 04:47 54.89723 -77.89686 36695 ft 504 kts 55°
2026-05-04 04:47 54.93756 -77.79801 36697 ft 504 kts 55°
2026-05-04 04:48 54.97809 -77.69825 36697 ft 504 kts 55°
2026-05-04 04:49 55.07903 -77.44808 36694 ft 505 kts 56°
2026-05-04 04:49 55.11906 -77.34816 36699 ft 505 kts 56°
2026-05-04 04:50 55.15924 -77.24749 36704 ft 505 kts 56°
2026-05-04 04:50 55.19933 -77.14658 36703 ft 504 kts 56°
2026-05-04 04:51 55.23934 -77.04550 36701 ft 505 kts 56°
2026-05-04 04:51 55.27926 -76.94420 36704 ft 505 kts 56°
2026-05-04 04:52 55.31920 -76.84246 36706 ft 505 kts 56°
2026-05-04 04:52 55.35874 -76.74131 36709 ft 505 kts 56°
2026-05-04 04:53 55.39843 -76.63935 36706 ft 505 kts 57°
2026-05-04 04:53 55.43810 -76.53704 36712 ft 505 kts 57°
2026-05-04 04:54 55.47762 -76.43467 36714 ft 505 kts 57°
2026-05-04 04:54 55.51690 -76.33248 36719 ft 505 kts 57°
2026-05-04 04:55 55.55626 -76.22968 36719 ft 505 kts 57°
2026-05-04 04:55 55.59559 -76.12652 36717 ft 506 kts 57°
2026-05-04 04:56 55.63476 -76.02335 36717 ft 505 kts 57°
2026-05-04 04:56 55.67388 -75.91989 36717 ft 505 kts 57°
2026-05-04 04:57 55.71285 -75.81637 36723 ft 505 kts 57°
2026-05-04 04:57 55.75180 -75.71246 36724 ft 505 kts 58°
2026-05-04 04:58 55.79067 -75.60835 36724 ft 505 kts 58°
2026-05-04 04:58 55.82946 -75.50400 36724 ft 506 kts 58°
2026-05-04 04:59 55.86793 -75.40004 36724 ft 507 kts 58°
2026-05-04 04:59 55.90663 -75.29505 36728 ft 507 kts 58°
2026-05-04 05:00 55.93899 -75.20687 36733 ft 507 kts 58°
2026-05-04 05:01 56.00292 -75.03177 36739 ft 507 kts 58°
2026-05-04 05:01 56.04321 -74.92802 36757 ft 507 kts 57°
2026-05-04 05:02 56.08339 -74.82419 36753 ft 507 kts 56°
2026-05-04 05:02 56.12410 -74.72095 36752 ft 507 kts 57°
2026-05-04 05:03 56.16411 -74.61770 36752 ft 507 kts 57°
2026-05-04 05:04 56.24474 -74.40941 36756 ft 507 kts 57°